CW1259 Weather Reports


time (UTC)temp
C
wind
direction
speed
KPH
gust
KPH
rain 1hr
cm
rain 24hr
cm
rain mn
cm
humidity
%
barometer
mb
20260504140319 10 270 11.3 16.1 0.00 0.00 0.00 66 1007.1
20260504130312 9 279 16.1 27.4 0.00 0.00 0.00 66 1008.2
20260504120316 8 288 9.7 20.9 0.00 0.00 0.00 64 1008.4
20260504040320 2 272 6.4 9.7 0.00 0.00 0.00 73 1007.9
20260504040023 1 280 3.2 6.4 0.00 0.00 0.00 73 1008.4
20260504035320 2 279 4.8 6.4 0.00 0.00 0.00 73 1007.8
20260504034559 1 272 3.2 8.0 0.00 0.00 0.00 73 1008.3
20260504034315 2 271 3.2 11.3 0.00 0.00 0.00 73 1007.7
20260504033338 2 268 6.4 11.3 0.00 0.00 0.00 73 1007.7
20260504033012 1 267 8.0 11.3 0.00 0.00 0.00 73 1008.3
20260504032352 2 269 8.0 12.9 0.00 0.00 0.00 71 1007.7
20260504031521 2 261 6.4 12.9 0.00 0.00 0.00 70 1008.2
20260504031331 2 273 8.0 12.9 0.00 0.00 0.00 70 1007.6
20260504030354 2 279 9.7 14.5 0.00 0.00 0.00 71 1007.6
20260504030035 2 270 9.7 16.1 0.00 0.00 0.00 71 1008.2
20260504025326 2 281 8.0 12.9 0.00 0.00 0.00 73 1007.6
20260504024545 2 279 4.8 11.3 0.00 0.00 0.00 71 1008.1
20260504024317 2 287 4.8 6.4 0.00 0.00 0.00 70 1007.6
20260504023315 2 273 6.4 11.3 0.00 0.00 0.00 69 1007.8
20260504023104 2 283 4.8 11.3 0.00 0.00 0.00 69 1008.3
20260504022323 3 283 8.0 12.9 0.00 0.00 0.00 68 1007.9
20260504021522 3 283 8.0 12.9 0.00 0.00 0.00 68 1008.3
20260504021323 3 284 9.7 12.9 0.00 0.00 0.00 67 1007.9
20260504020318 4 275 6.4 12.9 0.00 0.00 0.00 64 1007.7
20260504020040 4 292 8.0 12.9 0.00 0.05 0.00 64 1008.2
20260504015337 5 277 8.0 16.1 0.00 0.05 0.00 63 1007.6
20260504014524 4 310 8.0 16.1 0.00 0.05 0.00 62 1008.1
20260504014332 5 313 6.4 16.1 0.00 0.05 0.00 62 1007.7
20260504013325 5 341 8.0 17.7 0.00 0.05 0.00 61 1007.5
20260504013026 5 332 11.3 17.7 0.00 0.05 0.00 61 1008.1
20260504012326 5 338 8.0 17.7 0.00 0.05 0.00 61 1007.5
20260504011556 5 306 8.0 17.7 0.00 0.05 0.00 61 1008.0
20260504011323 5 331 8.0 16.1 0.00 0.05 0.00 60 1007.4
20260504010323 5 317 6.4 20.9 0.00 0.05 0.00 61 1007.3
20260504010110 5 315 11.3 20.9 0.00 0.05 0.00 60 1007.8
20260504005318 5 336 6.4 16.1 0.00 0.05 0.00 60 1007.1
20260504004522 5 305 8.0 14.5 0.00 0.05 0.00 59 1007.5
20260504004320 5 281 8.0 14.5 0.00 0.05 0.00 58 1007.0
20260504003317 6 335 14.5 27.4 0.00 0.05 0.00 57 1006.8
20260504003043 5 342 11.3 27.4 0.00 0.05 0.00 57 1007.3
20260504002337 6 351 16.1 33.8 0.00 0.05 0.00 56 1006.7
20260504001512 6 344 19.3 48.3 0.00 0.05 0.00 55 1007.1
20260504001331 6 360 16.1 48.3 0.00 0.05 0.00 55 1006.5
20260504000324 6 311 16.1 25.7 0.00 0.05 0.00 55 1006.3
20260504000028 6 332 16.1 25.7 0.00 0.05 0.00 55 1006.8
20260503235325 6 340 14.5 22.5 0.00 0.05 0.00 54 1006.2
20260503234559 6 320 11.3 29.0 0.00 0.05 0.00 54 1006.6
20260503234319 6 343 11.3 30.6 0.00 0.05 0.00 53 1006.1
20260503233313 6 307 9.7 33.8 0.00 0.05 0.00 53 1005.9
20260503233013 6 32 17.7 33.8 0.00 0.05 0.00 52 1006.3
20260503232331 7 5 20.9 37.0 0.00 0.05 0.00 51 1005.8